Weather History for Aberdeen, SD

Change the Weather History Date:

Thursday, May 24, 2012

  Actual Average Record
Temperature  
Mean Temperature 60 °F 59 °F  
Max Temperature 73 °F 71 °F 99 °F (1926)
Min Temperature 47 °F 47 °F 25 °F (1897)
Degree Days  
Heating Degree Days 5 7  
Month to date heating degree days 134 244  
Since 1 July heating degree days 6736 8415  
Cooling Degree Days 0 1  
Month to date cooling degree days 32 14  
Year to date cooling degree days 40 16  
Growing Degree Days 10 (Base 50)    
Moisture  
Dew Point 46 °F    
Average Humidity 64    
Maximum Humidity 93    
Minimum Humidity 34    
Precipitation  
Precipitation T in 0.10 in 1.30 in (1906)
Month to date precipitation 0.67 2.44  
Year to date precipitation 6.27 6.47  
Sea Level Pressure  
Sea Level Pressure 29.57 in    
Wind  
Wind Speed 9 mph (WNW)    
Max Wind Speed 26 mph    
Max Gust Speed 35 mph    
Visibility 10 miles    
Events      
T = Trace of Precipitation, MM = Missing Value Source: NWS Daily Summary

Daily Weather History Graph

Daily Weather History Graph

Search for Another Location

Airport:

Trip Planner

Search our weather history database for the weather conditions in past years. The results will help you decide how hot, cold, wet, or windy it might be!

Date:

Astronomy

May. 24, 2012 Rise Set
Actual Time 5:53 AM CDT 9:07 PM CDT
Civil Twilight 5:17 AM CDT 9:43 PM CDT
Nautical Twilight 4:31 AM CDT 10:30 PM CDT
Astronomical Twilight 3:33 AM CDT 11:28 PM CDT
Moon 8:56 AM CDT No Moon Set
Length of Visible Light 16h 26m
Length of Day
15h 14m
Waxing Crescent, 12% of the Moon is Illuminated
May 24
Waxing Crescent
May 28
First Quarter
Jun 4
Full
Jun 11
Last Quarter
Jun 19
New

Hourly Weather History & Observations

Time (CDT) Temp. Dew Point Humidity Pressure Visibility Wind Dir Wind Speed Gust Speed Precip Events Conditions
12:53 AM 48.0 °F 45.0 °F 89% 29.54 in 10.0 mi SSW 6.9 mph - N/A   Clear
1:53 AM 50.0 °F 46.9 °F 89% 29.51 in 10.0 mi South 4.6 mph - N/A   Clear
2:53 AM 52.0 °F 46.0 °F 80% 29.53 in 10.0 mi SW 6.9 mph - N/A   Clear
3:53 AM 52.0 °F 46.9 °F 83% 29.52 in 10.0 mi SW 6.9 mph - N/A   Clear
4:53 AM 48.9 °F 46.0 °F 90% 29.54 in 10.0 mi SSE 4.6 mph - N/A   Clear
5:53 AM 48.0 °F 46.0 °F 93% 29.53 in 10.0 mi Calm Calm - N/A   Clear
6:53 AM 48.9 °F 46.0 °F 90% 29.50 in 10.0 mi Calm Calm - N/A   Clear
7:53 AM 53.1 °F 46.9 °F 80% 29.51 in 10.0 mi North 5.8 mph - N/A   Clear
8:53 AM 55.9 °F 46.9 °F 72% 29.51 in 10.0 mi North 8.1 mph - N/A   Clear
9:53 AM 60.1 °F 48.0 °F 64% 29.53 in 10.0 mi NNE 8.1 mph - N/A   Clear
10:53 AM 64.9 °F 46.0 °F 50% 29.53 in 10.0 mi NNE 11.5 mph - N/A   Unknown
11:53 AM 68.0 °F 43.0 °F 40% 29.52 in 10.0 mi NNE 13.8 mph - N/A   Clear
12:53 PM 68.0 °F 44.1 °F 42% 29.52 in 10.0 mi NNE 15.0 mph - N/A   Clear
1:53 PM 70.0 °F 43.0 °F 38% 29.52 in 10.0 mi North 13.8 mph - N/A   Clear
2:53 PM 72.0 °F 42.1 °F 34% 29.51 in 10.0 mi North 9.2 mph - N/A   Clear
3:53 PM 72.0 °F 41.0 °F 33% 29.51 in 10.0 mi NNW 11.5 mph 24.2 mph N/A   Partly Cloudy
4:53 PM 66.9 °F 41.0 °F 39% 29.54 in 10.0 mi North 5.8 mph - 0.00 in   Mostly Cloudy
5:53 PM 68.0 °F 41.0 °F 37% 29.56 in 10.0 mi NNW 15.0 mph - N/A   Mostly Cloudy
6:53 PM 57.0 °F 48.0 °F 72% 29.62 in 10.0 mi SSW 20.7 mph 27.6 mph N/A   Overcast
7:53 PM 55.0 °F 50.0 °F 83% 29.66 in 10.0 mi South 10.4 mph - N/A   Overcast
8:53 PM 55.0 °F 50.0 °F 83% 29.70 in 10.0 mi SW 12.7 mph - N/A   Overcast
9:53 PM 54.0 °F 48.9 °F 83% 29.73 in 10.0 mi SW 9.2 mph - N/A   Partly Cloudy
10:53 PM 52.0 °F 48.0 °F 86% 29.76 in 10.0 mi SW 8.1 mph - N/A   Partly Cloudy
11:53 PM 51.1 °F 46.9 °F 86% 29.78 in 10.0 mi SW 5.8 mph - N/A   Clear